Weather History for Paducah, KY

Change the Weather History Date:

Tuesday, September 25, 2012

  Actual Average Record
Temperature  
Mean Temperature 72 °F 66 °F  
Max Temperature 86 °F 79 °F 94 °F (1939)
Min Temperature 57 °F 54 °F 38 °F (1950)
Degree Days  
Heating Degree Days 0 3  
Month to date heating degree days 36 20  
Since 1 July heating degree days 36 21  
Cooling Degree Days 7 4  
Month to date cooling degree days 153 171  
Year to date cooling degree days 1934 1484  
Growing Degree Days 20 (Base 50)    
Moisture  
Dew Point 60 °F    
Average Humidity 65    
Maximum Humidity 79    
Minimum Humidity 51    
Precipitation  
Precipitation 0.00 in 0.14 in 3.38 in (2011)
Month to date precipitation 3.82 3.06  
Year to date precipitation 19.94 35.54  
Snow  
Snow 0.00 in 0.00 in - ()
Month to date snowfall 0.0 0.0  
Since 1 July snowfall 0.0 0.0  
Since 1 September snowfall 0.0 0.0  
Snow Depth 0.00 in    
Sea Level Pressure  
Sea Level Pressure 29.96 in    
Wind  
Wind Speed 9 mph (SSW)    
Max Wind Speed 20 mph    
Max Gust Speed 29 mph    
Visibility 10 miles    
Events      
T = Trace of Precipitation, MM = Missing Value Source: NWS Daily Summary

Daily Weather History Graph

Daily Weather History Graph

Search for Another Location

Airport:

Trip Planner

Search our weather history database for the weather conditions in past years. The results will help you decide how hot, cold, wet, or windy it might be!

Date:

Astronomy

Sep. 25, 2012 Rise Set
Actual Time 6:45 AM CDT 6:46 PM CDT
Civil Twilight 6:19 AM CDT 7:12 PM CDT
Nautical Twilight 5:49 AM CDT 7:42 PM CDT
Astronomical Twilight 5:19 AM CDT 8:13 PM CDT
Moon 4:06 PM CDT (9/25) 2:12 AM CDT (9/25)
Length of Visible Light 12h 52m
Length of Day
12h 00m
Waxing Gibbous, 80% of the Moon is Illuminated
Sep 25
Waxing Gibbous
Sep 29
Full
Oct 8
Last Quarter
Oct 15
New
Oct 21
First Quarter

Hourly Weather History & Observations

Time (CDT) Temp. Heat Index Dew Point Humidity Pressure Visibility Wind Dir Wind Speed Gust Speed Precip Events Conditions
12:53 AM 55.9 °F - 48.0 °F 75% 30.01 in 10.0 mi Calm Calm - N/A   Clear
1:53 AM 61.0 °F - 48.0 °F 62% 30.01 in 10.0 mi South 4.6 mph - N/A   Clear
2:53 AM 61.0 °F - 48.9 °F 64% 30.01 in 10.0 mi Calm Calm - N/A   Clear
3:53 AM 63.0 °F - 48.9 °F 60% 29.98 in 10.0 mi South 4.6 mph - N/A   Clear
4:53 AM 63.0 °F - 50.0 °F 63% 29.96 in 10.0 mi SSW 6.9 mph - N/A   Clear
5:53 AM 64.0 °F - 51.1 °F 63% 29.96 in 10.0 mi SSW 9.2 mph - N/A   Clear
6:53 AM 66.0 °F - 54.0 °F 65% 29.98 in 10.0 mi SSW 11.5 mph 19.6 mph N/A   Partly Cloudy
7:53 AM 66.9 °F - 55.9 °F 68% 29.99 in 10.0 mi SSW 11.5 mph 18.4 mph N/A   Clear
8:53 AM 69.1 °F - 57.9 °F 68% 29.99 in 10.0 mi SSW 10.4 mph 19.6 mph N/A   Clear
9:53 AM 71.1 °F - 61.0 °F 70% 29.99 in 10.0 mi SSW 13.8 mph 23.0 mph N/A   Clear
10:53 AM 75.0 °F - 63.0 °F 66% 29.99 in 10.0 mi SW 10.4 mph 19.6 mph N/A   Clear
11:53 AM 79.0 °F - 64.0 °F 60% 29.98 in 10.0 mi SSW 15.0 mph 24.2 mph N/A   Clear
12:53 PM 79.0 °F - 64.9 °F 62% 29.96 in 10.0 mi South 9.2 mph - N/A   Clear
1:53 PM 80.6 °F 82.7 °F 66.2 °F 61% 29.95 in 10.0 mi SW 13.8 mph 19.6 mph N/A   Clear
2:53 PM 84.0 °F 86.5 °F 66.9 °F 56% 29.92 in 10.0 mi SW 12.7 mph 23.0 mph N/A   Mostly Cloudy
3:53 PM 84.0 °F 86.3 °F 66.0 °F 55% 29.90 in 10.0 mi SSW 8.1 mph - N/A   Clear
4:53 PM 84.0 °F 85.4 °F 64.0 °F 51% 29.90 in 10.0 mi SSW 11.5 mph 25.3 mph N/A   Clear
5:53 PM 82.0 °F 84.1 °F 66.0 °F 58% 29.89 in 9.0 mi South 10.4 mph 17.3 mph N/A   Clear
6:53 PM 80.1 °F 81.9 °F 64.9 °F 60% 29.89 in 9.0 mi South 5.8 mph - N/A   Clear
7:53 PM 79.0 °F - 66.0 °F 64% 29.89 in 10.0 mi South 8.1 mph 16.1 mph N/A   Clear
8:53 PM 77.0 °F - 66.0 °F 69% 29.94 in 10.0 mi SSW 6.9 mph - N/A   Clear
9:53 PM 75.2 °F - 66.2 °F 73% 29.97 in 10.0 mi SSW 6.9 mph - N/A   Clear
10:53 PM 75.0 °F - 66.9 °F 76% 29.97 in 9.0 mi SSW 3.5 mph - N/A   Clear
11:53 PM 75.2 °F - 68.0 °F 78% 29.99 in 8.0 mi SSW 8.1 mph 16.1 mph N/A   Clear